| time (UTC) | temp F | wind direction | speed MPH | gust MPH | rain 1hr in | rain 24hr in | rain mn in | humidity % | barometer mb |
| 20260510014549 | 65 | 51 | 3.0 | 7.0 | 0.00 | 0.00 | 0.00 | 64 | 1017.2 |
| 20260510013044 | 66 | 48 | 3.0 | 6.0 | 0.00 | 0.00 | 0.00 | 62 | 1017.6 |
| 20260510011546 | 67 | 44 | 2.0 | 5.0 | 0.00 | 0.00 | 0.00 | 61 | 1017.7 |
| 20260510010043 | 67 | 45 | 0.0 | 5.0 | 0.00 | 0.00 | 0.00 | 61 | 1017.8 |
| 20260510004542 | 68 | 48 | 4.0 | 7.0 | 0.00 | 0.00 | 0.00 | 57 | 1017.7 |
| 20260510003040 | 68 | 5 | 1.0 | 5.0 | 0.00 | 0.00 | 0.00 | 57 | 1018.0 |
| 20260510001541 | 68 | 5 | 2.0 | 4.0 | 0.00 | 0.00 | 0.00 | 56 | 1018.2 |
| 20260510000057 | 68 | 5 | 3.0 | 5.0 | 0.00 | 0.00 | 0.00 | 55 | 1018.2 |
| 20260509234548 | 68 | 5 | 1.0 | 4.0 | 0.00 | 0.00 | 0.00 | 55 | 1018.4 |
| 20260509233034 | 69 | 5 | 1.0 | 4.0 | 0.00 | 0.00 | 0.00 | 54 | 1018.5 |
| 20260509231532 | 69 | 5 | 2.0 | 6.0 | 0.00 | 0.00 | 0.00 | 53 | 1018.7 |
| 20260509230035 | 69 | 13 | 3.0 | 6.0 | 0.00 | 0.00 | 0.00 | 56 | 1018.9 |
| 20260509224528 | 69 | 21 | 3.0 | 8.0 | 0.00 | 0.00 | 0.00 | 54 | 1019.3 |
| 20260509223022 | 69 | 16 | 2.0 | 4.0 | 0.00 | 0.00 | 0.00 | 56 | 1019.5 |
| 20260509221522 | 68 | 17 | 1.0 | 4.0 | 0.00 | 0.00 | 0.00 | 60 | 1019.6 |
| 20260509220023 | 69 | 19 | 3.0 | 6.0 | 0.00 | 0.00 | 0.00 | 60 | 1019.7 |
| 20260509214527 | 68 | 11 | 4.0 | 8.0 | 0.00 | 0.00 | 0.00 | 59 | 1019.6 |
| 20260509213016 | 68 | 14 | 3.0 | 5.0 | 0.00 | 0.00 | 0.00 | 61 | 1019.7 |
| 20260509211517 | 67 | 14 | 1.0 | 5.0 | 0.00 | 0.00 | 0.00 | 62 | 1019.9 |
| 20260509210011 | 67 | 16 | 1.0 | 4.0 | 0.00 | 0.00 | 0.00 | 63 | 1020.0 |
| 20260509204512 | 67 | 16 | 1.0 | 5.0 | 0.00 | 0.00 | 0.00 | 63 | 1020.1 |
| 20260509203012 | 67 | 12 | 3.0 | 5.0 | 0.00 | 0.00 | 0.00 | 63 | 1020.3 |
| 20260509201508 | 67 | 12 | 3.0 | 5.0 | 0.00 | 0.00 | 0.00 | 63 | 1020.4 |
| 20260509200004 | 66 | 11 | 1.0 | 5.0 | 0.00 | 0.00 | 0.00 | 65 | 1020.6 |
| 20260509194603 | 65 | 11 | 3.0 | 5.0 | 0.00 | 0.00 | 0.00 | 68 | 1020.8 |
| 20260509181522 | 60 | 355 | 3.0 | 5.0 | 0.00 | 0.00 | 0.00 | 76 | 1021.6 |
| 20260509180020 | 59 | 348 | 2.0 | 5.0 | 0.00 | 0.00 | 0.00 | 78 | 1021.7 |
| 20260509174517 | 59 | 347 | 2.0 | 4.0 | 0.00 | 0.00 | 0.00 | 79 | 1021.8 |
| 20260509173014 | 58 | 346 | 2.0 | 4.0 | 0.00 | 0.00 | 0.00 | 81 | 1021.9 |
| 20260509171511 | 57 | 346 | 1.0 | 5.0 | 0.00 | 0.00 | 0.00 | 84 | 1022.0 |
| 20260509170008 | 57 | 336 | 1.0 | 5.0 | 0.00 | 0.00 | 0.00 | 86 | 1022.0 |
| 20260509164505 | 56 | 297 | 2.0 | 5.0 | 0.00 | 0.00 | 0.00 | 87 | 1022.2 |
| 20260509163002 | 55 | 243 | 1.0 | 4.0 | 0.00 | 0.00 | 0.00 | 90 | 1022.2 |
| 20260509161603 | 54 | 238 | 2.0 | 3.0 | 0.00 | 0.00 | 0.00 | 93 | 1022.3 |
| 20260509160056 | 53 | 235 | 1.0 | 2.0 | 0.00 | 0.00 | 0.00 | 94 | 1022.4 |
| 20260509154554 | 52 | 235 | 0.0 | 3.0 | 0.00 | 0.00 | 0.00 | 94 | 1022.7 |
| 20260509153054 | 52 | 235 | 1.0 | 3.0 | 0.00 | 0.00 | 0.00 | 94 | 1022.7 |
| 20260509151653 | 51 | 235 | 1.0 | 3.0 | 0.00 | 0.00 | 0.00 | 95 | 1022.7 |
| 20260509150051 | 51 | 216 | 1.0 | 3.0 | 0.00 | 0.00 | 0.00 | 95 | 1022.9 |
| 20260509144606 | 50 | 215 | 1.0 | 3.0 | 0.00 | 0.00 | 0.00 | 95 | 1023.0 |
| 20260509143111 | 50 | 214 | 2.0 | 3.0 | 0.00 | 0.00 | 0.00 | 95 | 1022.9 |
| 20260509141549 | 49 | 203 | 0.0 | 2.0 | 0.00 | 0.00 | 0.00 | 94 | 1023.0 |
| 20260509140057 | 48 | 203 | 0.0 | 1.0 | 0.00 | 0.00 | 0.00 | 93 | 1023.1 |
| 20260509134606 | 48 | 202 | 1.0 | 3.0 | 0.00 | 0.00 | 0.00 | 93 | 1023.1 |
| 20260509133049 | 48 | 202 | 1.0 | 3.0 | 0.00 | 0.00 | 0.00 | 93 | 1023.1 |
| 20260509131546 | 48 | 202 | 3.0 | 4.0 | 0.00 | 0.00 | 0.00 | 93 | 1023.2 |
| 20260509130054 | 48 | 204 | 1.0 | 3.0 | 0.00 | 0.00 | 0.00 | 93 | 1023.1 |
| 20260509124545 | 49 | 204 | 2.0 | 4.0 | 0.00 | 0.00 | 0.00 | 92 | 1023.0 |
| 20260509123053 | 49 | 234 | 1.0 | 3.0 | 0.00 | 0.00 | 0.00 | 92 | 1023.0 |
| 20260509121600 | 49 | 235 | 2.0 | 4.0 | 0.00 | 0.00 | 0.00 | 92 | 1023.1 |
| 20260509120036 | 48 | 235 | 0.0 | 0.0 | 0.00 | 0.00 | 0.00 | 90 | 1023.2 |
| 20260509114538 | 48 | 235 | 0.0 | 0.0 | 0.00 | 0.00 | 0.00 | 88 | 1023.2 |
| 20260509113037 | 49 | 235 | 0.0 | 0.0 | 0.00 | 0.00 | 0.00 | 87 | 1023.2 |
| 20260509111530 | 49 | 235 | 0.0 | 0.0 | 0.00 | 0.00 | 0.00 | 86 | 1023.2 |
| 20260509110032 | 50 | 235 | 0.0 | 0.0 | 0.00 | 0.00 | 0.00 | 86 | 1023.4 |
| 20260509104537 | 51 | 235 | 0.0 | 0.0 | 0.00 | 0.00 | 0.00 | 86 | 1023.4 |
| 20260509103023 | 51 | 235 | 0.0 | 0.0 | 0.00 | 0.00 | 0.00 | 85 | 1023.4 |
| 20260509101529 | 52 | 235 | 0.0 | 0.0 | 0.00 | 0.00 | 0.00 | 85 | 1023.5 |
| 20260509100018 | 52 | 235 | 0.0 | 0.0 | 0.00 | 0.00 | 0.00 | 86 | 1023.5 |
| 20260509094527 | 53 | 235 | 0.0 | 0.0 | 0.00 | 0.00 | 0.00 | 85 | 1023.7 |
| 20260509093015 | 53 | 235 | 0.0 | 0.0 | 0.00 | 0.00 | 0.00 | 85 | 1023.6 |
| 20260509091524 | 53 | 235 | 0.0 | 0.0 | 0.00 | 0.00 | 0.00 | 85 | 1023.8 |
| 20260509090014 | 53 | 235 | 0.0 | 0.0 | 0.00 | 0.00 | 0.00 | 85 | 1023.9 |
| 20260509084514 | 54 | 235 | 0.0 | 4.0 | 0.00 | 0.00 | 0.00 | 85 | 1023.9 |
| 20260509083014 | 54 | 203 | 2.0 | 4.0 | 0.00 | 0.00 | 0.00 | 85 | 1023.9 |
| 20260509081523 | 54 | 217 | 3.0 | 7.0 | 0.00 | 0.00 | 0.00 | 85 | 1023.9 |
| 20260509080012 | 53 | 189 | 0.0 | 3.0 | 0.00 | 0.00 | 0.00 | 85 | 1023.8 |
| 20260509074510 | 53 | 186 | 3.0 | 5.0 | 0.00 | 0.00 | 0.00 | 85 | 1023.7 |
| 20260509073008 | 53 | 188 | 2.0 | 6.0 | 0.00 | 0.00 | 0.00 | 85 | 1023.8 |
| 20260509071505 | 53 | 179 | 1.0 | 6.0 | 0.00 | 0.00 | 0.00 | 85 | 1023.7 |
| 20260509070009 | 53 | 204 | 2.0 | 6.0 | 0.00 | 0.00 | 0.00 | 85 | 1023.6 |
| 20260509064502 | 53 | 209 | 2.0 | 8.0 | 0.00 | 0.00 | 0.00 | 85 | 1023.6 |
| 20260509063003 | 53 | 175 | 3.0 | 7.0 | 0.00 | 0.00 | 0.00 | 84 | 1023.5 |
| 20260509061604 | 53 | 200 | 4.0 | 7.0 | 0.00 | 0.00 | 0.00 | 84 | 1023.5 |
| 20260509060058 | 53 | 196 | 2.0 | 8.0 | 0.00 | 0.00 | 0.00 | 83 | 1023.4 |
| 20260509054603 | 53 | 226 | 3.0 | 5.0 | 0.00 | 0.00 | 0.00 | 82 | 1023.4 |
| 20260509053105 | 54 | 185 | 2.0 | 5.0 | 0.00 | 0.00 | 0.00 | 82 | 1023.4 |
| 20260509051558 | 54 | 206 | 3.0 | 5.0 | 0.00 | 0.00 | 0.00 | 80 | 1023.3 |
| 20260509050054 | 54 | 211 | 2.0 | 6.0 | 0.00 | 0.00 | 0.00 | 79 | 1023.2 |
| 20260509044554 | 54 | 242 | 3.0 | 8.0 | 0.00 | 0.00 | 0.00 | 78 | 1023.2 |
| 20260509043054 | 55 | 215 | 2.0 | 9.0 | 0.00 | 0.00 | 0.00 | 77 | 1023.1 |
| 20260509041615 | 55 | 236 | 3.0 | 9.0 | 0.00 | 0.00 | 0.00 | 76 | 1023.0 |
| 20260509040050 | 55 | 230 | 2.0 | 8.0 | 0.00 | 0.00 | 0.00 | 75 | 1022.8 |
| 20260509034647 | 56 | 232 | 4.0 | 8.0 | 0.00 | 0.00 | 0.00 | 74 | 1022.7 |
| 20260509033046 | 57 | 248 | 1.0 | 8.0 | 0.00 | 0.00 | 0.00 | 72 | 1022.6 |
| 20260509031545 | 57 | 241 | 4.0 | 9.0 | 0.00 | 0.00 | 0.00 | 71 | 1022.4 |
| 20260509030046 | 58 | 255 | 4.0 | 7.0 | 0.00 | 0.00 | 0.00 | 70 | 1022.2 |
| 20260509024543 | 59 | 236 | 2.0 | 11.0 | 0.00 | 0.00 | 0.00 | 68 | 1022.1 |
| 20260509023142 | 59 | 265 | 6.0 | 13.0 | 0.00 | 0.00 | 0.00 | 67 | 1022.2 |
| 20260509021542 | 60 | 280 | 3.0 | 9.0 | 0.00 | 0.00 | 0.00 | 67 | 1022.0 |
| 20260509020051 | 60 | 294 | 4.0 | 12.0 | 0.00 | 0.00 | 0.00 | 65 | 1022.0 |